MST,Max TemperatureF,Mean TemperatureF,Min TemperatureF,Max Dew PointF,MeanDew PointF,Min DewpointF,Max Humidity, Mean Humidity, Min Humidity, Max Sea Level PressureIn, Mean Sea Level PressureIn, Min Sea Level PressureIn, Max VisibilityMiles, Mean VisibilityMiles, Min VisibilityMiles, Max Wind SpeedMPH, Mean Wind SpeedMPH, Max Gust SpeedMPH,PrecipitationIn, CloudCover, Events, WindDirDegrees
2013-11-1,41,32,22,29,27,18,92,72,51,30.34,30.18,30.05,10,7,1,14,5,22,0.04,7,Snow,350
2013-11-2,53,35,17,25,18,13,84,58,31,30.37,30.17,29.90,10,10,10,10,4,14,0.00,0,,215
2013-11-3,52,38,23,32,22,13,92,59,26,29.97,29.77,29.55,10,7,0,23,7,29,0.13,4,Fog-Snow,283
2013-11-4,40,25,9,29,20,7,92,76,59,29.98,29.89,29.81,10,8,2,13,3,18,T,4,Snow,289
2013-11-5,28,18,8,25,15,2,100,73,45,30.41,30.08,29.85,10,5,1,13,7,20,0.07,6,Snow,354
2013-11-6,35,21,6,19,11,1,80,62,43,30.59,30.49,30.41,10,10,10,12,5,15,0.00,2,,228
2013-11-7,50,33,15,26,19,12,88,61,34,30.58,30.38,30.08,10,10,10,10,4,17,0.00,1,,210
2013-11-8,51,38,25,22,20,18,75,52,28,30.13,30.04,29.93,10,10,10,18,6,25,0.00,0,,196
2013-11-9,54,39,24,24,19,16,75,51,26,30.28,30.16,30.07,10,10,10,10,5,14,0.00,0,,213
2013-11-10,55,39,23,23,19,15,69,46,22,30.35,30.25,30.14,10,10,10,13,6,17,0.00,0,,225
2013-11-11,54,38,22,21,18,13,75,47,19,30.46,30.35,30.24,10,10,10,12,6,16,0.00,0,,213
2013-11-12,56,39,22,21,16,1,74,43,11,30.59,30.46,30.38,10,10,10,12,6,14,0.00,0,,233
2013-11-13,54,37,20,24,16,10,75,47,19,30.45,30.25,30.03,10,10,10,13,5,17,0.00,0,,218
2013-11-14,49,35,21,28,21,12,85,54,23,30.12,29.96,29.76,10,10,9,10,4,13,0.00,3,,208
2013-11-15,47,34,21,32,24,12,100,64,28,29.76,29.64,29.50,10,5,0,22,6,26,0.24,6,Fog-Snow,29
2013-11-16,35,27,19,30,27,18,100,88,75,29.65,29.56,29.45,10,5,0,22,5,36,0.23,8,Fog-Snow,357
2013-11-17,42,31,19,23,17,12,78,58,38,30.20,29.94,29.61,10,10,10,23,8,40,T,4,,322
2013-11-18,44,30,16,20,15,11,80,55,30,30.37,30.23,30.12,10,10,10,12,6,14,0.00,0,,221
2013-11-19,45,30,15,32,24,11,100,68,36,30.09,29.96,29.83,10,9,5,14,3,17,0.01,5,Snow,170
2013-11-20,44,37,29,32,31,27,100,77,53,29.98,29.88,29.74,10,6,0,10,3,13,0.05,7,Fog-Rain-Snow,298
2013-11-21,38,32,26,34,30,25,100,91,82,30.22,29.99,29.78,10,4,0,10,3,14,0.19,8,Fog-Snow,355
2013-11-22,30,27,24,27,24,21,100,89,78,30.32,30.27,30.19,10,9,2,9,4,12,T,8,Snow,351
2013-11-23,36,30,23,28,26,23,100,88,75,30.33,30.26,30.12,10,9,2,9,4,12,T,6,Snow,339
2013-11-24,31,28,24,30,28,23,100,96,92,30.11,30.03,29.96,10,5,0,10,3,15,0.15,8,Fog-Snow,358
2013-11-25,39,27,15,28,21,14,92,73,54,30.33,30.17,30.00,10,10,10,9,2,10,0.00,6,,232
2013-11-26,40,26,12,24,17,11,96,72,48,30.49,30.40,30.32,10,10,10,13,4,15,0.00,0,,215
2013-11-27,41,26,11,20,15,8,92,66,40,30.46,30.30,30.16,10,10,10,9,5,12,0.00,0,,215
2013-11-28,45,30,14,22,16,11,88,64,39,30.29,30.20,30.07,10,10,10,9,5,10,0.00,0,,201
2013-11-29,44,29,14,22,15,11,84,60,36,30.39,30.29,30.18,10,10,10,10,5,12,0.00,0,,217
2013-11-30,41,26,11,18,12,7,84,59,34,30.43,30.33,30.22,10,10,10,9,5,12,0.00,0,,225